カタログに戻る

SL-8 R/B

運用中LEO
NORAD 16953·ROCKET BODY·🇷🇺 Russia

打ち上げ Sep 10, 1986 から Plesetsk Cosmodrome

Loading…

次のパス (今後24時間)

TLE

最新Source: Space-Track

元期: Sep 14, 2026, 18:11 UTC

1 16953U 86070B   26257.75813581  .00000152  00000-0  58099-4 0  9998
2 16953  74.0125 170.6098 0012991 303.5101  56.4812 14.38901770 97081

AllMySatでSL-8 R/Bをリアルタイム追跡

Download on the App Store